• In Uzbekistan
  • List of Countries
  • For 7 days
  • Water Temperature
  • Satellite Maps
  • Weather Map
  • Weather Widgets
  • user-avatar
    Login

    Hourly Weather Oran

    Today, 11 December, Tuesday

    Time Temperature Precipitation Wind Pressure Humidity
    00:00 +15°C° 0 mm 2 mps 758 mmHg 62%
    01:00 +14°C° 0 mm 2 mps 758 mmHg 63%
    02:00 +14°C° 0 mm 2 mps 757 mmHg 64%
    03:00 +14°C° 0 mm 2 mps 757 mmHg 66%
    04:00 +14°C° 0 mm 2 mps 757 mmHg 66%
    05:00 +13°C° 0 mm 2 mps 757 mmHg 67%
    06:00 +13°C° 0 mm 1 mps 757 mmHg 68%
    07:00 +15°C° 0 mm 1 mps 757 mmHg 61%
    08:00 +16°C° 0 mm 1 mps 757 mmHg 53%
    09:00 +19°C° 0 mm 1 mps 757 mmHg 46%
    10:00 +20°C° 0 mm 1 mps 757 mmHg 43%
    11:00 +21°C° 0 mm 1 mps 757 mmHg 40%
    12:00 +22°C° 0 mm 1 mps 757 mmHg 37%
    13:00 +22°C° 0 mm 1 mps 756 mmHg 39%
    14:00 +21°C° 0 mm 2 mps 756 mmHg 41%
    15:00 +21°C° 0 mm 2 mps 756 mmHg 43%
    16:00 +19°C° 0 mm 2 mps 756 mmHg 51%
    17:00 +18°C° 0 mm 2 mps 756 mmHg 59%
    18:00 +17°C° 0 mm 2 mps 756 mmHg 67%
    19:00 +16°C° 0 mm 2 mps 756 mmHg 70%
    20:00 +16°C° 0 mm 3 mps 756 mmHg 72%
    21:00 +14°C° 0 mm 3 mps 756 mmHg 75%
    22:00 +14°C° 0 mm 3 mps 756 mmHg 76%
    23:00 +14°C° 0 mm 4 mps 756 mmHg 77%

    Tomorrow, 12 December, Wednesday

    Time Temperature Precipitation Wind Pressure Humidity
    00:00 +14°C° 0 mm 4 mps 756 mmHg 78%
    01:00 +13°C° 0 mm 4 mps 756 mmHg 78%
    02:00 +13°C° 0 mm 4 mps 756 mmHg 79%
    03:00 +13°C° 0 mm 4 mps 755 mmHg 79%
    04:00 +13°C° 0 mm 4 mps 755 mmHg 79%
    05:00 +13°C° 0 mm 5 mps 755 mmHg 79%
    06:00 +13°C° 0 mm 5 mps 755 mmHg 79%
    07:00 +14°C° 0 mm 5 mps 756 mmHg 76%
    08:00 +15°C° 0 mm 5 mps 756 mmHg 72%
    09:00 +16°C° 0 mm 5 mps 756 mmHg 69%
    10:00 +17°C° 0 mm 5 mps 756 mmHg 64%
    11:00 +19°C° 0 mm 6 mps 756 mmHg 59%
    12:00 +20°C° 0 mm 6 mps 756 mmHg 55%
    13:00 +20°C° 0 mm 6 mps 755 mmHg 55%
    14:00 +19°C° 0 mm 6 mps 755 mmHg 55%
    15:00 +19°C° 0 mm 6 mps 754 mmHg 56%
    16:00 +17°C° 0 mm 6 mps 754 mmHg 62%
    17:00 +16°C° 0 mm 5 mps 754 mmHg 68%
    18:00 +15°C° 0 mm 5 mps 754 mmHg 74%
    19:00 +15°C° 0 mm 5 mps 754 mmHg 76%
    20:00 +14°C° 0 mm 5 mps 754 mmHg 78%
    21:00 +14°C° 0 mm 5 mps 754 mmHg 79%
    22:00 +14°C° 0 mm 5 mps 754 mmHg 80%
    23:00 +14°C° 0 mm 5 mps 754 mmHg 81%

    Day after tomorrow, 13 December, Thursday

    Time Temperature Precipitation Wind Pressure Humidity
    00:00 +13°C° 0 mm 6 mps 754 mmHg 81%
    01:00 +13°C° 0 mm 6 mps 753 mmHg 82%
    02:00 +12°C° 0 mm 7 mps 753 mmHg 82%
    03:00 +12°C° 0 mm 8 mps 753 mmHg 82%
    04:00 +12°C° 0 mm 8 mps 752 mmHg 81%
    05:00 +12°C° 0 mm 8 mps 752 mmHg 80%
    06:00 +12°C° 0 mm 8 mps 751 mmHg 80%
    07:00 +13°C° 0 mm 8 mps 751 mmHg 74%
    08:00 +13°C° 0 mm 9 mps 751 mmHg 69%
    09:00 +15°C° 0 mm 9 mps 751 mmHg 64%
    10:00 +16°C° 0 mm 9 mps 751 mmHg 60%
    11:00 +16°C° 0 mm 9 mps 750 mmHg 56%
    12:00 +17°C° 0 mm 9 mps 749 mmHg 52%
    13:00 +18°C° 0.2 mm 10 mps 748 mmHg 49%
    14:00 +18°C° 0.2 mm 12 mps 748 mmHg 46%
    15:00 +19°C° 0.2 mm 14 mps 747 mmHg 43%
    16:00 +17°C° 1.1 mm 14 mps 748 mmHg 47%
    17:00 +15°C° 1.1 mm 15 mps 749 mmHg 51%
    18:00 +13°C° 1.1 mm 16 mps 750 mmHg 55%
    19:00 +13°C° 0 mm 15 mps 750 mmHg 56%
    20:00 +13°C° 0 mm 14 mps 751 mmHg 57%
    21:00 +12°C° 0 mm 13 mps 751 mmHg 58%
    22:00 +12°C° 0.2 mm 13 mps 751 mmHg 59%
    23:00 +12°C° 0.2 mm 13 mps 752 mmHg 60%

    14 December, Friday

    Time Temperature Precipitation Wind Pressure Humidity
    00:00 +10°C° 0.2 mm 13 mps 752 mmHg 61%
    01:00 +10°C° 0.2 mm 13 mps 752 mmHg 62%
    02:00 +10°C° 0.2 mm 13 mps 752 mmHg 63%
    03:00 +10°C° 0.2 mm 13 mps 752 mmHg 64%
    04:00 +10°C° 0 mm 13 mps 752 mmHg 64%
    05:00 +10°C° 0 mm 13 mps 753 mmHg 64%
    06:00 +10°C° 0 mm 13 mps 753 mmHg 65%
    07:00 +10°C° 0 mm 12 mps 754 mmHg 64%
    08:00 +12°C° 0 mm 12 mps 755 mmHg 63%
    09:00 +12°C° 0 mm 11 mps 755 mmHg 61%
    10:00 +13°C° 0 mm 11 mps 756 mmHg 59%
    11:00 +13°C° 0 mm 10 mps 756 mmHg 56%
    12:00 +14°C° 0 mm 10 mps 756 mmHg 53%
    13:00 +15°C° 0 mm 9 mps 756 mmHg 54%
    14:00 +13°C° 0 mm 9 mps 756 mmHg 55%
    15:00 +13°C° 0 mm 8 mps 756 mmHg 56%
    16:00 +13°C° 0 mm 8 mps 757 mmHg 61%
    17:00 +12°C° 0 mm 7 mps 757 mmHg 65%
    18:00 +11°C° 0 mm 6 mps 757 mmHg 69%
    19:00 +11°C° 0 mm 6 mps 758 mmHg 71%
    20:00 +12°C° 0 mm 5 mps 758 mmHg 72%
    21:00 +12°C° 0 mm 5 mps 759 mmHg 74%
    22:00 +12°C° 0 mm 5 mps 759 mmHg 75%
    23:00 +12°C° 0 mm 5 mps 759 mmHg 76%

    15 December, Saturday

    Time Temperature Precipitation Wind Pressure Humidity
    00:00 +10°C° 0 mm 5 mps 759 mmHg 77%
    01:00 +10°C° 0 mm 6 mps 759 mmHg 78%
    02:00 +10°C° 0 mm 6 mps 759 mmHg 78%
    03:00 +10°C° 0 mm 6 mps 759 mmHg 79%
    04:00 +10°C° 0 mm 6 mps 759 mmHg 79%
    05:00 +10°C° 0 mm 6 mps 759 mmHg 79%
    06:00 +10°C° 0 mm 6 mps 759 mmHg 78%
    07:00 +10°C° 0 mm 5 mps 760 mmHg 74%
    08:00 +12°C° 0 mm 5 mps 760 mmHg 69%
    09:00 +13°C° 0 mm 5 mps 760 mmHg 64%
    10:00 +14°C° 0 mm 5 mps 760 mmHg 57%
    11:00 +15°C° 0 mm 5 mps 760 mmHg 51%
    12:00 +16°C° 0 mm 5 mps 760 mmHg 45%
    13:00 +16°C° 0 mm 5 mps 760 mmHg 42%
    14:00 +18°C° 0 mm 4 mps 759 mmHg 40%
    15:00 +18°C° 0 mm 4 mps 759 mmHg 38%
    16:00 +17°C° 0 mm 3 mps 759 mmHg 44%
    17:00 +15°C° 0 mm 2 mps 759 mmHg 50%
    18:00 +14°C° 0 mm 1 mps 760 mmHg 56%
    19:00 +14°C° 0 mm 1 mps 760 mmHg 55%
    20:00 +13°C° 0 mm 1 mps 760 mmHg 53%
    21:00 +13°C° 0 mm 1 mps 760 mmHg 52%
    22:00 +13°C° 0 mm 1 mps 760 mmHg 49%
    23:00 +13°C° 0 mm 1 mps 760 mmHg 47%

    16 December, Sunday

    Time Temperature Precipitation Wind Pressure Humidity
    00:00 +13°C° 0 mm 1 mps 760 mmHg 44%
    01:00 +13°C° 0 mm 1 mps 759 mmHg 42%
    02:00 +13°C° 0 mm 1 mps 759 mmHg 40%
    03:00 +13°C° 0 mm 1 mps 759 mmHg 38%
    04:00 +13°C° 0 mm 1 mps 759 mmHg 37%
    05:00 +13°C° 0 mm 1 mps 759 mmHg 35%
    06:00 +13°C° 0 mm 1 mps 759 mmHg 34%
    07:00 +15°C° 0 mm 2 mps 759 mmHg 33%
    08:00 +16°C° 0 mm 2 mps 759 mmHg 31%
    09:00 +18°C° 0 mm 2 mps 760 mmHg 29%
    10:00 +20°C° 0 mm 2 mps 759 mmHg 27%
    11:00 +21°C° 0 mm 2 mps 759 mmHg 25%
    12:00 +24°C° 0 mm 1 mps 759 mmHg 22%
    13:00 +24°C° 0 mm 1 mps 758 mmHg 23%
    14:00 +25°C° 0 mm 1 mps 758 mmHg 23%
    15:00 +25°C° 0 mm 1 mps 757 mmHg 24%
    16:00 +23°C° 0 mm 1 mps 757 mmHg 29%
    17:00 +21°C° 0 mm 1 mps 758 mmHg 35%
    18:00 +19°C° 0 mm 1 mps 758 mmHg 40%
    19:00 +19°C° 0 mm 1 mps 758 mmHg 40%
    20:00 +18°C° 0 mm 1 mps 758 mmHg 39%
    21:00 +18°C° 0 mm 1 mps 758 mmHg 39%
    22:00 +17°C° 0 mm 2 mps 758 mmHg 39%
    23:00 +16°C° 0 mm 2 mps 758 mmHg 40%
    Show more